Location: Wiler
(46.4041°N, 7.7840°E)
Time: 05:44:25
(UTC+00:00)

SAR-Lupe-2 - Pass Details

Date: 09 April 2020
Orbit: 481 x 485 km, 98.1° (Epoch: 27 May)

Event Time Altitude Azimuth Distance (km) Brightness Sun altitude
Rises 20:15:36 0° 13° (NNE) 2,555 7.5 -20.5°
Reaches altitude 10° 20:17:40 10° 14° (NNE) 1,670 6.6 -20.8°
Enters shadow 20:21:13 87° 66° (ENE) 489 3.4 -21.3°
